Regional Weather Roundup
Issued by NWS

Home | Current Version | Previous Version | Text Only | Print | Product List | Glossary Off
Versions: 1 2 3 4 5 6 7 8 9 10 11 12 13 14 15 16 17 18 19 20 21 22 23 24 25 26 27 28 29 30 31 32 33 34 35 36 37 38 39 40 41 42 43 44 45 46 47 48 49 50

000
ASUS45 KPSR 302000
RWRAZ

ARIZONA HOURLY REGIONAL WEATHER ROUNDUP
NATIONAL WEATHER SERVICE PHOENIX AZ
100 PM MST THU JUL 30 2015

NOTE: FAIR INDICATES FEW OR NO CLOUDS BELOW 12,000 FEET WITH NO
SIGNIFICANT WEATHER AND/OR OBSTRUCTIONS TO VISIBILITY.

AZZ001>003-036-302100-
NORTHWEST ARIZONA

CITY           SKY/WX    TMP DP  RH WIND       PRES   REMARKS
KINGMAN        MOSUNNY   96  52  22 VRB5      30.14F
$$

AZZ004>008-015-016-018-302100-
NORTH CENTRAL ARIZONA

CITY           SKY/WX    TMP DP  RH WIND       PRES   REMARKS
GRAND CANYON   CLOUDY    77  48  35 SE5       30.41F
WILLIAMS       CLOUDY    72  54  53 SW5       30.48S
PRESCOTT       PTSUNNY   82  55  39 VRB6      30.29F
FLAGSTAFF      NOT AVBL
PAYSON           N/A    N/A N/A N/A S12G17    30.30F
PAGE           PTSUNNY   89  51  27 CALM      30.22F
$$

AZZ009>014-017-302100-
NORTHEAST ARIZONA

CITY           SKY/WX    TMP DP  RH WIND       PRES   REMARKS
WINSLOW        NOT AVBL
SAINT JOHNS    MOSUNNY   78  54  43 NW7       30.34F
SHOW LOW       MOSUNNY   72  55  56 E5        30.40F
$$

AZZ023-302100-
GREATER PHOENIX AREA

CITY           SKY/WX    TMP DP  RH WIND       PRES   REMARKS
PHOENIX        MOSUNNY   98  59  27 N5        29.96F
GLENDALE       MOSUNNY  100  61  27 NE6       29.98F HX 101
DEER VALLEY    SUNNY     98  58  26 VRB7G16   29.98F
SCOTTSDALE     SUNNY     98  57  25 VRB3      30.00F
MESA-FALCON    MOSUNNY  100  59  25 N6        29.98F HX 100
CHANDLER       MOSUNNY   99  61  28 E7        29.99F
$$

AZZ027-028-302100-
SOUTHWEST MARICOPA COUNTY AND PINAL COUNTY

CITY           SKY/WX    TMP DP  RH WIND       PRES   REMARKS
CASA GRANDE    SUNNY     99  59  26 CALM      29.99F
$$

AZZ503-504-507>509-302100-
SOUTHEAST ARIZONA

CITY           SKY/WX    TMP DP  RH WIND       PRES   REMARKS
TUCSON         SUNNY     94  60  32 CALM      30.10F
RYAN FIELD     SUNNY     97  63  32 NE5       30.09F
NOGALES        SUNNY     88  62  41 VRB3      30.18F
SIERRA VISTA   PTSUNNY   79  63  57 W18       30.26F THUNDER
SAFFORD        SUNNY     89  60  37 SE3       30.14F
$$

AZZ020-021-025-026-031-302100-
SOUTHWEST ARIZONA

CITY           SKY/WX    TMP DP  RH WIND       PRES   REMARKS
YUMA           PTSUNNY  105  63  25 CALM      29.90F HX 108
$$

CAZ031-033-041-043-047-048-061-302100-
SOUTHERN CALIFORNIA

CITY           SKY/WX    TMP DP  RH WIND       PRES   REMARKS
DOWNTOWN L.A.  SUNNY     83  66  56 MISG      29.98F
L.A. AIRPORT   MOSUNNY   75  65  70 W12       30.01F
SAN DIEGO      MOSUNNY   79  65  62 W13       30.02F
BURBANK        SUNNY     87  64  46 VRB5      29.99F
ONTARIO        MOSUNNY   94  64  37 W10       29.98F
RIVERSIDE      SUNNY     94  65  38 W8        29.97F
PALM SPRINGS   MOSUNNY  104  63  26 VRB3G17   29.93F HX 106
EL CENTRO NAS  MOSUNNY  104  62  25 VRB6      29.90F HX 106
IMPERIAL       SUNNY    104  63  26 MISG      29.88F HX 106
BLYTHE         SUNNY    105  62  24 VRB3      29.91F HX 107
$$

NVZ020-UTZ003-302100-
SOUTHERN NEVADA-UTAH

CITY           SKY/WX    TMP DP  RH WIND       PRES   REMARKS
LAS VEGAS      NOT AVBL
SALT LAKE CITY MOSUNNY   89  32  13 NW10      30.27F
$$

NMZ009-TXZ055-302100-
NEW MEXICO-WEST TEXAS

CITY           SKY/WX    TMP DP  RH WIND       PRES   REMARKS
ALBUQUERQUE    PTSUNNY   78  56  46 NE5       30.36F
EL PASO        MOSUNNY   84  60  44 SW3       30.22F
$$


........................KEY........................
SKY/WX - SKY CONDITION/WEATHER
TMP    - TEMPERATURE IN FAHRENHEIT
DP     - DEW POINT IN FAHRENHEIT
RH     - RELATIVE HUMIDITY IN PERCENT
WIND   - DIRECTION AND SPEED IN MILES PER HOUR (MPH)
VRB    - VARIABLE WIND DIRECTION
PRES   - MEAN SEA LEVEL PRESSURE IN INCHES OF MERCURY
         F - FALLING PRESSURE   R - RISING PRESSURE
         S - STEADY PRESSURE
VSB    - VISIBILITY IN MILES
HX     - HEAT INDEX IN FAHRENHEIT
WCI    - WIND CHILL INDEX IN FAHRENHEIT
TC     - TEMPERATURE IN CELSIUS WHICH IS ALSO KNOWN AS
         TEMPERATURE IN CENTIGRADE
AFB    - AIR FORCE BASE
         LUKE AFB IS LUKE AIR FORCE BASE
         DAVIS-MONTHAN IS DAVIS-MONTHAN AIR FORCE BASE
NAS    - NAVAL AIR STATION
         EL CENTRO NAS IS EL CENTRO NAVAL AIR STATION
N/A    - NOT AVAILABLE



USA.gov is the U.S. government's official web portal to all federal, state and local government web resources and services.